Regional Weather Roundup
Issued by NWS Portland, ME

Home | Current Version | Previous Version | Text Only | Print | Product List | Glossary On
Versions: 1 2 3 4 5 6 7 8 9 10 11 12 13 14 15 16 17 18 19 20 21 22 23 24 25 26 27 28 29 30 31 32 33 34 35 36 37 38 39 40 41 42 43 44 45 46 47 48 49 50
000
ASUS41 KGYX 050510
RWRGYX
WEATHER ROUNDUP FOR MAINE AND NEW HAMPSHIRE
NATIONAL WEATHER SERVICE GRAY ME
100 AM EDT SUN JUL 05 2015

MEZ002-005-006-010-012-015-018-020-021-024-026-027-029-050600-
MAINE

CITY           SKY/WX    TMP DP  RH WIND       PRES   REMARKS
PORTLAND       CLEAR     58  57  97 CALM      29.96F FOG
SANFORD        CLEAR     50  46  87 CALM      29.97F
BAR HARBOR     CLEAR     54  54 100 CALM      29.95F
WISCASSET      CLEAR     54  52  93 CALM      29.97S FOG
ROCKLAND       CLEAR     52  48  87 CALM      29.95S
FRYEBURG       PTCLDY    59  57  93 CALM      29.96F
LEWISTONAUBURN CLOUDY    55  54  94 SE5       29.95F VSB 1/4
AUGUSTA        MOCLDY    57  56  96 CALM      29.96S FOG
WATERVILLE       N/A    N/A N/A N/A MISG        N/A
BANGOR         PTCLDY    57  55  93 S5        29.95F
GREENVILLE       N/A     57  53  86 CALM      29.94S
MILLINOCKET    CLEAR     60  57  89 CALM      29.94S
HOULTON        CLEAR     55  53  93 CALM      29.91S
PRESQUE ISLE   CLEAR     54  48  82 CALM      29.91F
FRENCHVILLE    MOCLDY    62  51  67 SW3       29.92S
CARIBOU        CLEAR     57  54  89 CALM      29.90F FOG
$$

NHZ002-005-008-009-011-012-014-050600-
NEW HAMPSHIRE

CITY           SKY/WX    TMP DP  RH WIND       PRES   REMARKS
PORTSMOUTH     CLEAR     58  56  95 S3        29.97S FOG
ROCHESTER      CLEAR     56  54  93 CALM      29.97S FOG
NASHUA         PTCLDY    57  56  97 CALM      30.00S
MANCHESTER     FOG       58  58 100 CALM      29.98S VSB<1/4
CONCORD        FOG       54  53  97 CALM      29.99S VSB 1/4
LACONIA        PTCLDY    57  55  94 SW5       29.98S
PLYMOUTH       MOCLDY    55  55 100 CALM      29.98F FOG
BERLIN         CLOUDY    57  55  93 CALM      29.99R
WHITEFIELD     MOCLDY    59  57  93 CALM      30.00R FOG
JAFFREY        CLEAR     57  56  96 CALM      30.02S FOG
KEENE          CLOUDY    57  54  88 SW3       30.02S VSB 1/4
LEBANON        MOCLDY    59  56  89 SE5       29.99F FOG
MT WASHINGTON  FOG       45  45 100 W20         N/A  VSB 0
$$

VTZ005-007-008-050600-
VERMONT

CITY           SKY/WX    TMP DP  RH WIND       PRES   REMARKS
ST JOHNSBURY     N/A     62  59  90 MISG      29.97S
MONTPELIER     FOG       57  56  96 CALM      30.04S VSB 1/2
BURLINGTON     PTCLDY    63  58  83 S7        29.99R
$$

MAZ007-012-024-CTZ003-RIZ002-NYZ038-NYZ072-050600-
SOUTHERN NEW ENGLAND AND NY

CITY           SKY/WX    TMP DP  RH WIND       PRES   REMARKS
BOSTON         PTCLDY    62  57  83 CALM      30.00R
WORCESTER      CLEAR     58  54  86 W8        30.02S
NANTUCKET      CLEAR     59  56  89 N5        29.99R
PROVIDENCE     CLEAR     62  59  90 W3        30.01S FOG
HARTFORD       CLEAR     59  56  89 W3        30.01S
ALBANY         PTCLDY    60  58  92 CALM      30.03R FOG
NEW YORK CITY  MOCLDY    71  60  68 SW5       30.03R
$$

ANZ081-ANZ082-ANZ150-NHZ014-MEZ023>029-050600-
COASTAL MARINE OBSERVATIONS

STATION/POSITION TIME  TEMP    WIND        PRES    WAVE
                       AIR SEA DIR/SP/G            HT/PER
                 (UTC) (F)     (DEG/KT/KT) (MB)    (FT/S)
MOUNT DESERT ROC 0500   57     240/  5/  6 1014.6F
MATINICUS ROCK   0500   59     250/ 11/ 12 1014.2F
ISLE OF SHOALS   0500   62     230/ 10/ 10 1014.5F
JEFFREYS LEDGE   0403      59                N/A     2/ 8
CASHES LEDGE BUO 0450   59 58              1014.4F   2/ 9
GEORGES BANK BUO 0450   61 59  350/ 16/ 19 1010.0R   6/ 7
$$

.............KEY..............
   WCI - WIND CHILL
   TC  - TEMPERATURE IN CELSIUS
   VSB - VISIBILITY IN MILES
   HX  - HEAT INDEX
   FAIR- INDICATES FEW OR NO CLOUDS BELOW 12,000 FT, WITH NO
         SIGNIFICANT WEATHER AND/OR OBSTRUCTIONS TO VISIBILITY.




USA.gov is the U.S. government's official web portal to all federal, state and local government web resources and services.